Flag Weather past 2 weeks in Antioch, California, U.S.A.

Now
67 °F

Scattered clouds.


Feels Like: 67 °F
Forecast: 45 / 67 °F
Wind: 6 mph from North

Location: Buchanan Field

Current Time: Nov 27, 2014 at 2:33:11 PM

Latest Report: Nov 27, 2014 at 1:53 PM


Visibility: 6 mi

Pressure: 30.06 "Hg

Humidity: 51%

Dew point: 48 °F

Location of AntiochLocation

Historic Weather in Antioch — Graph

°F

Antioch temperature yesterday

Maximum temperature yesterday: 68 °F (at 2:53 PM)
Minimum temperature yesterday: 42 °F (at 5:53 AM)
Average temperature yesterday: 54 °F

Past Weeks' High & Low Weather Summary

 TemperatureHumidityPressure
High69 °F (Nov 24, 2:53 PM)100% (Nov 13, 7:53 AM)30.44 "Hg (Nov 13, 7:53 AM)
Low40 °F (Nov 24, 5:53 AM)19% (Nov 16, 11:53 AM)29.90 "Hg (Nov 13, 4:53 AM)
Average55 °F74%30.13 "Hg
* Reported Nov 12 12:53 PM — Nov 27 12:53 PM, Antioch, Weather by CustomWeather, © 2014

Note: Actual official high and low records may vary slightly from our data, if they occured in-between our weather recording intervals... More about our weather records

Advertising

Antioch weather history for previous 24 hours

 ConditionsComfort  
Time TempWeatherWind HumidityBarometerVisibility
12:53 PM
Nov 27
65 °FScattered clouds.7 mph54%30.09 "Hg6 mi
11:53 AM64 °FScattered clouds.5 mph58%30.11 "Hg7 mi
10:53 AM60 °FSunny.5 mph67%30.15 "Hg7 mi
9:53 AM54 °FFog.No wind80%30.16 "Hg4 mi
8:53 AM49 °FFog.No wind86%30.16 "Hg3 mi
7:53 AM44 °FFog.No wind93%30.16 "Hg3 mi
6:53 AM44 °FFog.3 mph93%30.15 "Hg2 mi
5:53 AM45 °FFog.No wind93%30.15 "Hg2 mi
4:53 AM45 °FFog.3 mph93%30.14 "Hg3 mi
3:53 AM47 °FFog.No wind90%30.15 "Hg5 mi
2:53 AM48 °FFog.No wind89%30.16 "Hg4 mi
1:53 AM47 °FFog.No wind90%30.16 "Hg4 mi
12:53 AM49 °FFog.3 mph86%30.16 "Hg4 mi
11:53 PM
Nov 26
49 °FFog.No wind86%30.18 "Hg4 mi
10:53 PM50 °FFog.No wind86%30.19 "Hg5 mi
9:53 PM51 °FClear.No wind83%30.19 "Hg5 mi
8:53 PM54 °FClear.No wind77%30.19 "Hg6 mi
7:53 PM53 °FClear.No wind80%30.18 "Hg5 mi
6:53 PM56 °FClear.No wind75%30.18 "Hg6 mi
5:53 PM58 °FClear.No wind70%30.17 "Hg7 mi
4:53 PM62 °FClear.5 mph60%30.18 "Hg6 mi
3:53 PM66 °FSunny.7 mph50%30.17 "Hg5 mi
2:53 PM68 °FSunny.7 mph47%30.18 "Hg7 mi
Weather by CustomWeather, © 2014

See weather overviewHow to use our weather pages